Weather History for Philadelphia, PA

Change the Weather History Date:

Friday, March 1, 2013

  Actual Average Record
Temperature  
Mean Temperature 39 °F 39 °F  
Max Temperature 46 °F 48 °F 76 °F (1972)
Min Temperature 31 °F 30 °F 9 °F (1980)
Degree Days  
Heating Degree Days 26 26  
Month to date heating degree days 26 26  
Since 1 July heating degree days 3233 3508  
Cooling Degree Days 0 0  
Month to date cooling degree days 0 0  
Year to date cooling degree days 0 0  
Moisture  
Dew Point 26 °F    
Average Humidity 64    
Maximum Humidity 82    
Minimum Humidity 45    
Precipitation  
Precipitation 0.00 in 0.10 in 1.46 in (1925)
Month to date precipitation 0.00 0.10  
Year to date precipitation 5.46 5.78  
Snow  
Snow 0.00 in 0.20 in 8.60 in (1941)
Month to date snowfall 0.0 0.2  
Since 1 July snowfall 7.0 19.2  
Snow Depth 0.00 in    
Sea Level Pressure  
Sea Level Pressure 29.76 in    
Wind  
Wind Speed 11 mph (NW)    
Max Wind Speed 22 mph    
Max Gust Speed 26 mph    
Visibility 10 miles    
Events      
T = Trace of Precipitation, MM = Missing Value Source: NWS Daily Summary

Daily Weather History Graph

Daily Weather History Graph

Search for Another Location

Airport:

Trip Planner

Search our weather history database for the weather conditions in past years. The results will help you decide how hot, cold, wet, or windy it might be!

Date:

Astronomy

Mar. 01, 2013 Rise Set
Actual Time 6:33 AM EST 5:53 PM EST
Civil Twilight 6:06 AM EST 6:20 PM EST
Nautical Twilight 5:35 AM EST 6:51 PM EST
Astronomical Twilight 5:04 AM EST 7:22 PM EST
Moon 10:23 PM EST (3/1) 8:19 AM EST (3/1)
Length of Visible Light 12h 13m
Length of Day
11h 19m
Waning Gibbous, 83% of the Moon is Illuminated
Mar 1
Waning Gibbous
Mar 4
Last Quarter
Mar 11
New
Mar 19
First Quarter
Mar 27
Full

Hourly Weather History & Observations

Time (EST) Temp. Windchill Dew Point Humidity Pressure Visibility Wind Dir Wind Speed Gust Speed Precip Events Conditions
12:54 AM 37.9 °F 31.5 °F 28.9 °F 70% 29.67 in 10.0 mi WNW 9.2 mph - N/A   Clear
1:54 AM 37.0 °F 31.0 °F 28.0 °F 70% 29.68 in 10.0 mi WNW 8.1 mph - N/A   Clear
2:54 AM 35.1 °F 29.3 °F 28.0 °F 76% 29.69 in 10.0 mi West 6.9 mph - N/A   Partly Cloudy
3:54 AM 34.0 °F 28.0 °F 28.0 °F 79% 29.70 in 10.0 mi West 6.9 mph - N/A   Partly Cloudy
4:54 AM 33.1 °F 28.7 °F 27.0 °F 78% 29.71 in 10.0 mi WSW 4.6 mph - N/A   Partly Cloudy
5:54 AM 32.0 °F 25.6 °F 27.0 °F 82% 29.72 in 10.0 mi WSW 6.9 mph - N/A   Partly Cloudy
6:54 AM 35.1 °F 30.1 °F 28.0 °F 76% 29.73 in 10.0 mi West 5.8 mph - N/A   Scattered Clouds
7:54 AM 37.9 °F 32.1 °F 28.9 °F 70% 29.75 in 10.0 mi WNW 8.1 mph - N/A   Scattered Clouds
8:54 AM 43.0 °F 37.2 °F 28.9 °F 58% 29.76 in 10.0 mi NW 10.4 mph 19.6 mph N/A   Mostly Cloudy
9:54 AM 43.0 °F 35.7 °F 26.1 °F 51% 29.77 in 10.0 mi NW 15.0 mph 26.5 mph N/A   Mostly Cloudy
10:54 AM 44.1 °F 36.8 °F 26.1 °F 49% 29.76 in 10.0 mi NNW 16.1 mph 21.9 mph N/A   Mostly Cloudy
11:54 AM 44.1 °F 36.8 °F 25.0 °F 47% 29.76 in 10.0 mi NW 16.1 mph 21.9 mph N/A   Mostly Cloudy
12:54 PM 46.0 °F 39.6 °F 26.1 °F 46% 29.75 in 10.0 mi North 15.0 mph 23.0 mph N/A   Mostly Cloudy
1:54 PM 44.1 °F 37.1 °F 24.1 °F 45% 29.75 in 10.0 mi NW 15.0 mph 21.9 mph N/A   Mostly Cloudy
2:54 PM 44.1 °F 38.6 °F 25.0 °F 47% 29.75 in 10.0 mi NW 10.4 mph 20.7 mph N/A   Mostly Cloudy
3:54 PM 45.0 °F 38.9 °F 26.1 °F 48% 29.76 in 10.0 mi NW 12.7 mph - N/A   Overcast
4:54 PM 44.1 °F 37.7 °F 25.0 °F 47% 29.76 in 10.0 mi NNW 12.7 mph 21.9 mph N/A   Mostly Cloudy
5:54 PM 43.0 °F 36.0 °F 26.1 °F 51% 29.78 in 10.0 mi WNW 13.8 mph - N/A   Mostly Cloudy
6:54 PM 43.0 °F 36.0 °F 25.0 °F 49% 29.80 in 10.0 mi NNW 13.8 mph 18.4 mph N/A   Mostly Cloudy
7:54 PM 41.0 °F 32.5 °F 24.1 °F 51% 29.81 in 10.0 mi NNW 17.3 mph - N/A   Mostly Cloudy
8:54 PM 39.9 °F 33.4 °F 24.1 °F 53% 29.83 in 10.0 mi NNW 10.4 mph - N/A   Mostly Cloudy
9:54 PM 39.0 °F 32.3 °F 25.0 °F 57% 29.84 in 10.0 mi NNW 10.4 mph 19.6 mph N/A   Overcast
10:54 PM 39.0 °F 32.3 °F 25.0 °F 57% 29.83 in 10.0 mi NNW 10.4 mph - N/A   Overcast
11:54 PM 37.9 °F 32.1 °F 25.0 °F 60% 29.83 in 10.0 mi NW 8.1 mph - N/A   Mostly Cloudy